Location: Recife
(8.0585°S, 34.8848°W)
Time: 09:43:27
(UTC-03:00)

Transit 4A - Pass Details

Date: 19 April 2026
Orbit: 861 x 980 km, 66.8° (Epoch: 14 May)

Event Time Altitude Azimuth Distance (km) Brightness Sun altitude
Rises 01:08:12 0° 307° (NW) 3,644 - -62.9°
Reaches altitude 10° 01:11:36 10° 290° (WNW) 2,686 - -62.0°
Maximum altitude 01:15:46 18° 248° (WSW) 2,118 - -61.0°
Drops below altitude 10° 01:19:53 10° 205° (SSW) 2,645 - -60.0°
Sets 01:23:15 0° 187° (S) 3,568 - -59.2°
